Regional Weather Roundup
Issued by NWS

Home | Current Version | Previous Version | Graphics & Text | Print | Product List | Glossary On
Versions: 1 2 3 4 5 6 7 8 9 10 11 12 13 14 15 16 17 18 19 20 21 22 23 24 25 26 27 28 29 30 31 32 33 34 35 36 37 38 39 40 41 42 43 44 45 46 47 48 49 50
312
ASUS43 KMKX 280800
RWRWI

WISCONSIN REGIONAL WEATHER ROUNDUP
NATIONAL WEATHER SERVICE MILWAUKEE/SULLIVAN WI
300 AM CDT SUN MAY 28 2017

NOTE: "FAIR" INDICATES FEW OR NO CLOUDS BELOW 12,000 FEET WITH NO
SIGNIFICANT WEATHER AND/OR OBSTRUCTIONS TO VISIBILITY.

WIZ001-002-006>008-014>016-023>028-280900-
NORTHWEST WISCONSIN

CITY           SKY/WX    TMP DP  RH WIND       PRES   REMARKS
SUPERIOR ARPT  NOT AVBL
ASHLAND        CLOUDY    57  49  74 SW6       29.74F
HAYWARD        LGT RAIN  57  50  77 S5        29.77S
SIREN          MOCLDY    60  47  63 CALM      29.76S
CUMBERLAND     DRIZZLE   55  46  71 SE3       29.78F
RICE LAKE      LGT RAIN  56  52  84 W3        29.81S
CHETEK         CLOUDY    55  51  87 CALM      29.79S
LADYSMITH      MOCLDY    55  50  85 CALM      29.80F
EAU CLAIRE     NOT AVBL
MENOMONIE      CLOUDY    57  52  81 CALM      29.80S
NEW RICHMOND   CLOUDY    58  46  63 S7        29.79F
OSCEOLA        CLOUDY    61  48  62 S6        29.80F
$$

WIZ003>005-009-010-017-018-280900-
NORTH CENTRAL WISCONSIN

CITY           SKY/WX    TMP DP  RH WIND       PRES   REMARKS
MANITOWISH WTR CLOUDY    54  53  96 CALM      29.78F
ARBOR VITAE    CLOUDY    57  50  78 CALM      29.79F
WOODRUFF       CLOUDY    57  50  78 CALM      29.79F
RHINELANDER    CLOUDY    55  50  83 W3        29.79F
EAGLE RIVER    CLOUDY    53  49  87 CALM      29.79F
LAND O LAKES   CLOUDY    53  49  89 CALM      29.80F
PHILLIPS       MOCLDY    54  50  86 CALM      29.78F
TOMAHAWK       CLOUDY    50  49  95 CALM      29.79F
MEDFORD        CLOUDY    54  50  88 CALM      29.79F
MERRILL        CLOUDY    56  52  85 CALM      29.80F
$$

WIZ029-030-035-036-043>047-280900-
CENTRAL WISCONSIN

CITY           SKY/WX    TMP DP  RH WIND       PRES   REMARKS
WAUSAU         CLOUDY    58  52  80 N5        29.77F
MOSINEE        CLOUDY    55  52  88 NW6       29.80F
MARSHFIELD     CLOUDY    55  52  89 SW5       29.79F
STEVENS POINT  CLOUDY    55  55  98 CALM      29.81S
WAUPACA        CLOUDY    61  55  80 CALM      29.79S
WAUTOMA        LGT RAIN  59  55  87 CALM      29.81R
WISC RAPIDS    CLOUDY    56  55  97 S3        29.81S
CAMP DOUGLAS   NOT AVBL
$$

WIZ011>013-019>022-031-037>040-048>050-280900-
NORTHEAST WISCONSIN

CITY           SKY/WX    TMP DP  RH WIND       PRES   REMARKS
ANTIGO         CLOUDY    57  52  81 NW3       29.80F
SHAWANO        CLOUDY    60  53  77 CALM      29.79F
OCONTO         CLOUDY    58  54  85 SW3       29.78F
STURGEON BAY   CLOUDY    62  53  72 W6        29.78F
GREEN BAY      CLOUDY    61  57  87 S3        29.78F
MANITOWOC      NOT AVBL
APPLETON       CLOUDY    59  50  72 N5        29.76F
CLINTONVILLE   CLOUDY    59  52  77 CALM      29.78F
OSHKOSH        CLOUDY    63  52  67 CALM      29.78F
$$

WIZ032>034-041-042-053>061-280900-
SOUTHWEST WISCONSIN

CITY           SKY/WX    TMP DP  RH WIND       PRES   REMARKS
LA CROSSE      CLOUDY    59  57  93 S6        29.81S
SPARTA         CLOUDY    55  55  99 CALM      29.82F
VIROQUA        CLOUDY    57  52  83 CALM      29.82F
BOSCOBEL       CLOUDY    60  57  89 CALM      29.83S
PRAIRIE DU CHI CLOUDY    59  57  91 W3        29.82S
PLATTEVILLE    CLOUDY    61  60  97 N6        29.81F
$$

WIZ056-057-062-063-064-067-068-280900-
SOUTH CENTRAL WISCONSIN

CITY           SKY/WX    TMP DP  RH WIND       PRES   REMARKS
REEDSBURG      CLOUDY    59  54  84 CALM      29.81F
BARABOO/DELLS  CLOUDY    57  54  88 CALM      29.82S
LONE ROCK      NOT AVBL
MINERAL POINT  CLOUDY    61  59  94 N5        29.80F
MADISON        CLOUDY    61  55  81 N3        29.79F
MIDDLETON      CLOUDY    61  58  88 NW5       29.82S
WATERTOWN      CLOUDY    60  60 100 CALM      29.79F
MONROE         CLOUDY    63  59  88 CALM      29.80S
JANESVILLE     CLOUDY    63  61  94 CALM      29.79S
$$

WIZ051-052-058>065-066-070>072-280900-
SOUTHEAST WISCONSIN

CITY           SKY/WX    TMP DP  RH WIND       PRES   REMARKS
MILWAUKEE      CLOUDY    61  55  81 S6        29.79F
WAUKESHA       CLOUDY    61  52  72 CALM      29.81F
MILWAUKEE/TIMM   N/A     61  52  72 CALM      29.80S
RACINE         CLOUDY    59  50  72 S7        29.81F
KENOSHA        PTCLDY    59  51  75 SE3       29.79F
FOND DU LAC    CLOUDY    62  55  77 W6        29.80R
SHEBOYGAN      CLOUDY    61  58  90 N3        29.77F
WEST BEND      CLOUDY    59  55  88 CALM      29.79F
JUNEAU         CLOUDY    62  57  83 CALM      29.81S
$$

LSZ147-162-280900-
LAKE SUPERIOR

STATION/POSITION TIME  TEMP    WIND        PRES    WAVE
                       AIR SEA DIR/SP/G            HT/PER
                 (UTC) (F)     (DEG/KT/KT) (MB)    (FT/S)
W MID LAKE BUOY  0650   44 37  210/ 10/ 10 1007.1F   0
DEVILS ISLAND    0700   54     230/  3/  4 1006.9S
PORT WING        0740   62     170/  7/ 10 1006.8F
SAXON HARBOR     0740   61     190/  5/  8 1007.1F
$$

LMZ867-665-643>646-280900-
LAKE MICHIGAN

STATION/POSITION TIME  TEMP    WIND        PRES    WAVE
                       AIR SEA DIR/SP/G            HT/PER
                 (UTC) (F)     (DEG/KT/KT) (MB)    (FT/S)
CHAMBERS ISLAND  0740   58     250/  6/  8 1007.8F
N MID LAKE BUOY  0650   46 42  180/ 10/ 12 1009.3F
NORTHPORT PIER   0740   51      CALM  /  4 1008.1F
SISTER BAY       0536   62        CALM       N/A
ALGOMA LAKESHORE 0531             CALM       N/A
KEWAUNEE LAKESHO 0730   60     300/  4/  5 1008.1F
SHEBOYGAN LAKESH 0700   64     240/  4/  5 1008.9S
PORT WASHINGTON  0730   57      CALM  /  6 1009.5F
ATWATER BUOY     0609   54     150/  4/  6 1009.4F
MILWAUKEE LAKESH 0730   55     200/  2/  3   N/A
S MID LAKE BUOY  0650   52 49  300/  4/  6 1009.9S   0
KENOSHA   LAKESH 0700   58     200/  3/  6 1009.5
$$

TC  - TEMPERATURE IN CELSIUS
VSB - VISIBILITY IN STATUTE MILES
WCI - WIND CHILL INDEX
HX  - HEAT INDEX





USA.gov is the U.S. government's official web portal to all federal, state and local government web resources and services.